TimeEEST,TemperatureF,Dew PointF,Humidity,Sea Level PressureIn,VisibilityMPH,Wind Direction,Wind SpeedMPH,Gust SpeedMPH,PrecipitationIn,Events,Conditions,WindDirDegrees,DateUTC
12:20 AM,71.6,60.8,69,30.04,6.2,NE,15.0,-,N/A,,Scattered Clouds,50,2012-09-07 21:20:00
12:50 AM,71.6,59.0,64,30.04,6.2,NE,16.1,-,N/A,,Scattered Clouds,50,2012-09-07 21:50:00
1:20 AM,73.4,59.0,61,30.04,6.2,NE,13.8,-,N/A,,Scattered Clouds,50,2012-09-07 22:20:00
1:50 AM,71.6,55.4,57,30.04,6.2,NE,13.8,-,N/A,,Scattered Clouds,50,2012-09-07 22:50:00
2:20 AM,71.6,55.4,57,30.04,6.2,NE,13.8,-,N/A,,Scattered Clouds,50,2012-09-07 23:20:00
2:50 AM,71.6,55.4,57,30.04,6.2,NE,12.7,-,N/A,,Scattered Clouds,40,2012-09-07 23:50:00
3:00 AM,71,54,44,30.04,6,NE,12.7,,,,Partly Cloudy,40,2012-09-08 00:00:00
3:20 AM,69.8,53.6,56,30.04,6.2,NE,13.8,-,N/A,,Scattered Clouds,50,2012-09-08 00:20:00
3:50 AM,69.8,53.6,56,30.04,6.2,NE,11.5,-,N/A,,Scattered Clouds,50,2012-09-08 00:50:00
4:20 AM,69.8,53.6,56,30.04,6.2,NE,12.7,-,N/A,,Scattered Clouds,40,2012-09-08 01:20:00
4:50 AM,69.8,53.6,56,30.04,6.2,NE,12.7,-,N/A,,Scattered Clouds,50,2012-09-08 01:50:00
5:20 AM,69.8,51.8,53,30.01,6.2,NE,11.5,-,N/A,,Scattered Clouds,50,2012-09-08 02:20:00
5:50 AM,69.8,51.8,53,30.01,6.2,NE,10.4,-,N/A,,Scattered Clouds,50,2012-09-08 02:50:00
6:20 AM,69.8,51.8,53,30.04,6.2,NE,10.4,-,N/A,,Scattered Clouds,50,2012-09-08 03:20:00
7:20 AM,69.8,50.0,49,30.04,6.2,NE,11.5,-,N/A,,Partly Cloudy,50,2012-09-08 04:20:00
7:50 AM,71.6,51.8,50,30.04,6.2,NE,10.4,-,N/A,,Partly Cloudy,40,2012-09-08 04:50:00
8:20 AM,71.6,51.8,50,30.04,-9999.0,NE,12.7,-,N/A,,Clear,40,2012-09-08 05:20:00
8:50 AM,71.6,50.0,46,30.04,-9999.0,NE,15.0,-,N/A,,Clear,50,2012-09-08 05:50:00
9:00 AM,72,50,35,30.05,6,NE,15.0,,,,,50,2012-09-08 06:00:00
9:20 AM,73.4,50.0,44,30.04,-9999.0,NE,13.8,-,N/A,,Clear,50,2012-09-08 06:20:00
9:50 AM,73.4,48.2,41,30.04,6.2,NE,17.3,-,N/A,,Partly Cloudy,40,2012-09-08 06:50:00
10:20 AM,75.2,48.2,38,30.06,6.2,NE,18.4,31.1,N/A,,Partly Cloudy,50,2012-09-08 07:20:00
10:50 AM,75.2,48.2,38,30.04,6.2,ENE,17.3,-,N/A,,Partly Cloudy,60,2012-09-08 07:50:00
11:20 AM,75.2,48.2,38,30.04,6.2,NE,16.1,-,N/A,,Partly Cloudy,40,2012-09-08 08:20:00
11:50 AM,75.2,46.4,36,30.04,6.2,NNE,17.3,-,N/A,,Partly Cloudy,30,2012-09-08 08:50:00
12:20 PM,75.2,50.0,41,30.04,6.2,NNE,18.4,-,N/A,,Partly Cloudy,30,2012-09-08 09:20:00
12:50 PM,77.0,50.0,39,30.04,6.2,NNE,20.7,-,N/A,,Partly Cloudy,20,2012-09-08 09:50:00
1:20 PM,77.0,48.2,36,30.04,6.2,NE,17.3,-,N/A,,Partly Cloudy,40,2012-09-08 10:20:00
1:50 PM,77.0,48.2,36,30.04,6.2,NNE,18.4,-,N/A,,Partly Cloudy,30,2012-09-08 10:50:00
2:20 PM,77.0,46.4,34,30.04,6.2,NE,17.3,-,N/A,,Scattered Clouds,40,2012-09-08 11:20:00
2:50 PM,77.0,50.0,39,30.04,6.2,NE,18.4,-,N/A,,Scattered Clouds,40,2012-09-08 11:50:00
3:00 PM,76,48,26,30.04,6,NE,18.4,,,,Partly Cloudy,40,2012-09-08 12:00:00
3:20 PM,77.0,50.0,39,30.01,6.2,NNE,19.6,-,N/A,,Scattered Clouds,30,2012-09-08 12:20:00
3:50 PM,77.0,50.0,39,30.01,6.2,NNE,17.3,28.8,N/A,,Scattered Clouds,30,2012-09-08 12:50:00
4:20 PM,75.2,51.8,44,30.01,6.2,NE,18.4,-,N/A,,Scattered Clouds,50,2012-09-08 13:20:00
4:50 PM,75.2,50.0,41,30.01,6.2,NE,18.4,-,N/A,,Scattered Clouds,50,2012-09-08 13:50:00
5:20 PM,75.2,50.0,41,30.01,6.2,NNE,18.4,29.9,N/A,,Scattered Clouds,30,2012-09-08 14:20:00
5:50 PM,75.2,50.0,41,30.01,6.2,NNE,18.4,-,N/A,,Scattered Clouds,30,2012-09-08 14:50:00
6:20 PM,73.4,51.8,47,30.01,6.2,NNE,15.0,-,N/A,,Scattered Clouds,30,2012-09-08 15:20:00
6:50 PM,73.4,51.8,47,30.01,6.2,NE,15.0,-,N/A,,Partly Cloudy,50,2012-09-08 15:50:00
7:20 PM,73.4,51.8,47,30.01,6.2,NE,12.7,-,N/A,,Partly Cloudy,50,2012-09-08 16:20:00
7:50 PM,73.4,51.8,47,30.01,-9999.0,ENE,9.2,-,N/A,,Clear,60,2012-09-08 16:50:00
8:20 PM,71.6,53.6,53,30.01,-9999.0,NE,13.8,-,N/A,,Clear,40,2012-09-08 17:20:00
8:50 PM,71.6,55.4,57,30.04,-9999.0,NE,11.5,-,N/A,,Clear,40,2012-09-08 17:50:00
9:00 PM,72,55,44,30.03,6,NE,11.5,,,,,40,2012-09-08 18:00:00
9:20 PM,71.6,55.4,57,30.04,-9999.0,NE,11.5,-,N/A,,Clear,50,2012-09-08 18:20:00
9:50 PM,71.6,53.6,53,30.04,-9999.0,ENE,9.2,-,N/A,,Clear,60,2012-09-08 18:50:00
10:20 PM,71.6,53.6,53,30.04,-9999.0,NE,9.2,-,N/A,,Clear,50,2012-09-08 19:20:00
10:50 PM,69.8,53.6,56,30.04,-9999.0,ENE,9.2,-,N/A,,Clear,60,2012-09-08 19:50:00
11:20 PM,69.8,53.6,56,30.04,-9999.0,ENE,9.2,-,N/A,,Clear,60,2012-09-08 20:20:00
11:50 PM,69.8,53.6,56,30.04,-9999.0,ENE,10.4,-,N/A,,Clear,60,2012-09-08 20:50:00